Location: Briis
(48.6240°N, 2.1211°E)
Time: 07:12:41
(UTC+00:00)

CZ-4B R/B - Pass Details

Date: 25 September 2020
Orbit: 391 x 461 km, 97.6° (Epoch: 22 October)

Event Time Altitude Azimuth Distance (km) Brightness Sun altitude
Rises 03:35:32 0° 139° (SE) 2,354 5.3 -21.3°
Reaches altitude 10° 03:37:41 10° 126° (SE) 1,509 4.4 -20.9°
Maximum altitude 03:40:26 26° 68° (ENE) 888 3.7 -20.5°
Drops below altitude 10° 03:43:15 10° 9° (N) 1,555 4.5 -20.1°
Sets 03:45:30 0° 357° (N) 2,444 5.4 -19.7°
